User: anonymous   Login
Location: Unspecified
(0.0000°N, 0.0000°E)
Time: 13:14:16
(UTC+00:00)
Language:

USA-170 - Orbit

View from above orbital plane
View from above orbital plane
View from above satellite
View from above satellite

Ground track
Ground track

The orbit data is extracted from the following two-line orbital elements,

1 27875U 03040A   21015.44718205 -.00000281  00000-0  00000-0 0  9998
2 27875   6.3141  63.1823 0001054 216.6329 313.9728  1.00270870 13123
Epoch (UTC): 15 January 2021 10:43:56
Eccentricity: 0.0001054
inclination: 6.3141°
perigee height: 35782 km
apogee height: 35791 km
right ascension of ascending node: 63.1823°
argument of perigee: 216.6329°
revolutions per day: 1.00270870
mean anomaly at epoch: 313.9728°
orbit number at epoch: 1312

The dashed part of the orbit path shows where the satellite is in the earth's shadow,  

DLR